User: anonymous
Location: Caltech
(34.1382°N, 118.1253°W)
Time: 05:43:09
(UTC-07:00)
Language:

Cosmos 1937 Rocket - Orbit

View from above orbital plane
View from above orbital plane
View from above satellite
View from above satellite

Ground track
Ground track

The orbit data is extracted from the following two-line orbital elements,

1 19039U 88029B   14209.82370977  .00000062  00000-0  28952-4 0   841
2 19039 074.0480 080.6636 0023436 157.3735 275.2164 14.38015318379274
Epoch (UTC): 28 July 2014 19:46:08
Eccentricity: 0.0023436
inclination: 74.0480°
perigee height: 748 km
apogee height: 782 km
right ascension of ascending node: 80.6636°
argument of perigee: 157.3735°
revolutions per day: 14.38015318
mean anomaly at epoch: 275.2164°
orbit number at epoch: 37927

The dashed part of the orbit path shows where the satellite is in the earth's shadow,  

DLR